Theta_e
328 328 328 327 325 324 324 324 324 324 324 324 325 325 325 325 325 325 324 324 323 323 324 325 326 326 326 327 327 328 328 329 331 330 330 330 328 328 331 331 331 331 330 328 329 330 328 328 328 327 326 325 324 323 323 323 323 323 323 324 325 325 325
328 327 326 325 325 325 325 323 322 323 324 324 323 323 322 322 322 321 321 322 322 321 323 324 325 325 325 325 325 326 327 327 328 329 329 329 328 328 329 329 329 329 329 328 329 330 328 328 327 326 325 324 322 322 321 321 321 321 321 321 322 323 323
326 325 324 324 325 325 324 323 322 322 322 322 321 321 321 320 320 320 320 322 323 322 322 322 322 322 321 322 324 325 326 325 326 326 326 326 326 326 325 326 326 325 326 327 328 328 327 328 327 326 326 325 322 321 320 319 319 319 319 320 321 321 322
326 325 324 324 323 323 323 323 323 321 320 320 319 320 319 319 320 320 321 321 322 322 321 320 319 319 320 322 323 324 324 324 324 324 324 323 323 322 321 321 321 321 322 324 326 327 327 328 327 326 325 324 322 320 319 318 317 318 318 318 319 319 319
326 324 324 323 323 323 323 323 323 321 319 318 318 319 319 319 319 319 320 320 321 321 319 319 318 319 320 321 321 322 322 322 322 322 321 321 321 319 318 318 317 316 317 320 322 324 326 327 326 324 323 321 320 319 318 317 316 316 316 317 318 318 317
326 324 323 323 323 322 322 322 321 319 318 318 318 319 319 319 319 318 319 319 320 320 320 319 319 318 318 319 319 320 320 319 319 319 319 319 319 318 317 316 315 314 314 317 320 322 323 324 322 322 321 320 319 317 316 316 315 314 314 315 317 317 317
325 324 323 323 323 322 321 320 319 318 318 318 318 319 319 318 317 318 318 318 318 318 319 319 318 317 316 316 317 318 318 319 318 318 318 318 318 317 316 315 314 314 314 315 318 320 321 321 320 320 319 319 318 317 315 314 313 313 313 313 314 315 315
326 324 323 323 322 320 320 320 319 319 318 318 319 319 318 317 317 317 317 317 318 318 318 318 317 317 315 315 316 316 316 317 317 316 317 318 317 317 316 314 314 314 314 313 315 318 319 320 319 319 319 318 317 316 316 314 312 312 312 311 311 312 312
326 324 323 323 322 320 320 320 320 319 319 319 319 320 318 318 318 317 317 317 318 318 318 317 317 317 316 315 316 315 314 315 316 315 316 317 316 316 315 314 313 313 314 314 314 315 318 319 318 319 318 317 316 316 315 314 313 312 311 311 310 310 310
326 325 323 323 322 320 321 321 320 320 319 318 320 320 319 319 318 318 318 318 318 318 317 317 317 317 316 316 316 315 315 315 315 315 315 315 316 316 315 314 314 313 313 314 314 315 317 318 318 318 317 317 317 317 316 315 314 313 312 311 310 309 309
326 325 324 323 322 320 321 321 321 321 320 319 319 320 320 320 319 318 319 319 319 319 318 318 318 317 317 317 316 315 316 316 316 315 315 315 315 315 315 314 314 314 314 313 314 314 315 315 316 316 316 316 316 317 317 316 314 314 313 311 310 310 309
327 326 325 324 322 320 321 321 321 321 320 319 319 320 320 320 319 319 319 319 320 319 319 319 319 318 318 317 318 317 317 317 316 315 315 315 315 315 315 314 314 314 314 313 313 314 314 314 314 314 315 315 316 316 316 316 315 314 313 312 311 311 311
328 327 325 324 322 321 321 321 321 321 320 319 319 319 319 319 319 319 319 319 320 320 320 320 320 319 319 319 319 319 318 318 317 316 315 315 315 315 315 314 314 315 314 313 312 312 313 313 313 313 314 314 315 315 315 315 315 314 314 313 312 312 312
329 327 325 323 322 321 321 320 321 321 320 319 319 319 318 318 318 318 318 318 320 320 321 321 321 321 321 321 320 320 320 320 319 318 316 316 316 316 316 315 314 314 315 313 313 312 312 312 313 313 313 314 314 315 315 315 315 315 315 314 313 313 313
329 327 325 324 322 321 320 320 320 320 319 319 319 319 318 318 318 318 318 319 319 320 321 321 322 322 322 322 322 321 321 321 320 320 319 318 317 316 316 316 315 315 316 315 314 313 312 312 312 313 314 315 315 316 316 316 316 317 316 315 315 314 314
328 328 327 325 322 321 320 320 319 319 320 319 318 318 318 318 318 319 319 319 320 320 321 322 322 322 323 322 323 322 322 322 322 322 321 320 318 317 318 318 318 317 317 317 316 314 313 312 313 313 315 316 317 317 317 317 317 317 317 316 315 315 315
329 328 328 327 324 321 320 321 320 319 319 319 318 318 319 319 319 320 320 320 321 321 321 322 322 323 323 323 323 323 323 323 323 322 322 321 320 319 319 319 319 319 318 318 318 316 315 314 313 313 314 316 317 317 317 317 317 317 317 317 316 315 315
329 329 329 328 326 322 321 321 321 319 319 318 318 318 319 319 320 320 320 320 321 321 321 322 322 323 323 323 323 323 323 322 323 323 322 322 321 321 320 320 320 319 318 318 318 317 316 315 314 314 315 316 317 317 317 317 318 318 318 318 317 316 316
329 329 327 327 326 323 321 320 320 320 320 318 318 319 319 320 321 321 321 321 321 321 321 322 322 322 322 323 323 323 323 323 323 323 323 322 322 322 321 321 321 320 319 319 319 319 318 316 315 316 316 316 316 317 317 317 318 318 318 318 317 316 316
327 328 327 327 327 324 322 321 319 319 319 319 319 320 320 320 321 321 321 320 321 321 322 321 321 322 322 322 322 323 323 324 324 323 323 323 323 322 322 322 322 321 320 320 319 319 319 318 316 316 316 316 315 316 317 317 317 317 317 317 317 316 315
324 327 327 327 326 324 323 322 319 318 319 319 320 320 321 322 322 322 321 321 320 321 322 322 322 322 322 322 323 324 324 324 324 323 323 323 323 322 323 322 322 322 321 321 320 320 320 319 318 316 316 316 315 315 315 316 316 316 316 316 316 316 315
323 326 327 326 326 326 325 324 322 320 320 320 320 321 322 322 322 322 321 322 322 322 323 322 322 323 324 324 324 324 323 322 321 321 322 322 322 323 323 323 323 322 322 322 321 320 319 319 318 317 317 316 315 315 315 316 315 314 314 315 316 315 315
324 326 326 325 325 325 325 325 325 323 322 322 323 323 323 323 323 322 322 323 324 324 324 323 323 323 323 323 323 321 321 321 320 320 321 321 322 322 322 323 323 322 322 321 320 319 318 318 317 317 317 316 315 315 316 315 314 313 314 314 315 314 314
325 325 324 325 325 324 323 323 324 324 324 324 323 323 322 320 321 321 322 323 323 323 324 324 322 321 320 320 321 321 321 321 321 321 321 321 321 321 321 322 322 322 321 320 319 318 317 316 315 315 315 314 314 315 316 314 314 314 314 314 314 313 313
325 323 323 324 323 323 322 322 322 323 324 323 322 322 322 320 319 320 322 322 320 321 322 322 320 320 319 318 320 321 321 320 320 320 320 320 319 319 319 321 322 321 321 320 319 319 317 315 314 313 313 313 313 313 313 313 314 313 313 313 312 312 312
324 322 322 322 321 320 321 321 321 321 322 323 322 323 324 324 322 322 322 321 320 320 321 320 320 320 318 316 317 319 319 318 318 318 319 318 318 318 318 318 319 320 319 318 318 318 317 315 314 313 312 312 312 310 310 311 311 310 310 311 310 311 311
323 323 322 321 320 319 320 321 320 320 321 322 322 322 323 324 322 320 319 319 318 319 320 321 321 320 317 315 316 317 317 317 317 317 317 317 317 317 318 317 317 318 318 317 316 316 316 314 312 311 311 310 309 308 308 308 307 307 308 308 308 309 309
322 322 321 320 320 320 320 321 320 320 321 321 321 321 320 320 319 317 316 317 317 318 318 320 321 320 318 317 316 316 317 316 316 317 316 315 315 316 317 316 315 316 316 316 315 315 314 312 311 310 310 308 307 307 307 306 305 306 306 306 306 306 306
318 319 319 319 318 318 319 320 319 319 320 319 319 318 317 316 316 315 315 315 315 313 311 314 318 319 319 318 317 316 315 315 315 316 315 315 315 315 315 315 315 315 315 314 314 313 313 312 312 311 311 310 309 308 306 305 305 305 305 304 304 303 302
316 316 316 316 317 317 317 317 317 317 316 316 316 316 314 314 314 314 314 314 313 310 306 306 309 313 316 317 315 314 315 314 314 315 314 314 313 312 312 314 314 313 312 311 311 311 311 311 311 311 311 310 309 307 305 304 304 304 303 302 301 301 300
313 314 314 315 315 315 315 315 315 314 314 314 314 313 313 313 312 313 313 313 314 312 306 302 304 307 310 312 311 313 314 314 314 314 312 312 311 309 310 311 311 311 309 308 309 309 309 310 310 310 310 310 309 308 306 304 303 303 302 302 301 301 300
312 312 313 313 313 313 314 313 313 313 313 313 313 312 312 312 311 312 313 311 311 313 309 303 303 305 307 307 308 312 314 313 313 313 311 311 310 308 308 308 308 307 306 306 306 307 308 308 309 309 309 308 308 308 306 304 304 304 303 303 303 302 301
311 311 312 312 312 312 312 312 312 312 312 312 312 311 310 311 311 311 312 310 309 313 312 306 304 306 308 308 308 310 313 312 312 311 310 309 309 308 306 306 305 305 305 305 305 305 305 306 307 307 307 307 307 307 306 304 304 303 301 301 301 301 301
311 311 311 311 311 311 311 311 311 311 311 311 311 310 310 311 310 311 312 310 310 313 313 309 306 306 308 309 308 309 311 312 310 310 310 308 309 308 306 305 304 304 304 304 303 303 303 304 305 305 305 305 303 303 303 302 302 301 301 301 301 301 301
311 311 311 311 311 311 311 310 310 310 310 310 310 310 310 310 310 310 310 310 311 312 311 309 307 307 308 309 308 307 310 311 310 309 309 307 307 307 305 304 304 304 303 303 302 302 302 301 302 302 302 301 301 300 299 298 299 300 300 300 300 300 300
311 311 312 311 311 311 311 310 310 310 310 310 310 310 310 309 309 310 309 309 310 311 310 308 307 307 307 307 307 307 308 309 308 307 308 308 307 306 305 304 303 303 302 301 300 300 300 300 299 299 298 298 297 296 295 296 298 299 299 299 299 299 299
309 310 311 311 312 312 311 311 311 310 310 310 310 311 311 309 308 309 309 308 309 310 309 308 306 305 304 304 305 307 308 308 305 304 307 308 307 306 305 304 303 302 301 300 299 298 298 298 298 297 296 295 294 294 295 297 299 299 299 299 299 299 299
Wind_Speed
8 9 9 9 9 10 10 10 9 9 8 7 7 6 6 6 5 5 4 3 3 3 4 6 6 6 7 8 9 9 9 8 8 8 7 7 4 2 4 5 2 0 4 5 3 2 3 3 4 7 9 10 11 11 11 11 11 11 12 13 13 14 15
9 10 9 9 10 10 10 10 9 9 9 8 8 7 7 6 6 5 5 5 4 4 5 6 6 7 8 9 10 10 10 10 10 11 10 9 8 6 6 6 5 3 4 5 2 2 3 5 4 5 7 8 10 10 10 10 11 11 12 13 14 14 16
9 9 10 10 11 11 11 10 10 9 9 9 8 8 7 7 6 6 6 6 6 6 7 7 7 7 9 10 10 10 10 10 10 11 11 10 10 9 8 7 6 5 4 6 2 1 3 3 3 5 7 7 7 7 7 9 10 11 12 13 14 15 15
9 9 10 11 11 11 11 10 10 10 9 9 9 8 8 8 7 7 7 7 8 8 8 8 7 8 9 9 10 10 11 11 10 10 11 10 9 9 9 8 8 7 6 5 4 5 5 3 3 5 7 7 8 7 6 6 8 10 12 13 14 14 14
10 10 11 11 12 11 11 11 11 11 11 10 9 9 8 8 8 7 7 8 8 8 8 8 8 9 9 9 9 10 11 11 11 11 11 11 10 9 9 8 8 8 8 8 7 5 4 5 6 6 7 7 7 8 8 8 10 11 11 12 13 14 13
11 11 11 12 12 11 11 12 12 12 11 11 10 9 9 8 7 7 8 8 9 9 9 9 9 9 9 9 10 10 11 11 11 11 11 11 11 10 9 9 9 9 9 8 7 7 6 6 6 6 7 8 7 8 9 9 10 11 11 11 12 12 12
11 11 11 11 11 11 12 13 13 13 12 12 11 10 9 9 9 9 9 9 10 10 10 9 9 9 9 10 10 10 10 10 10 10 11 11 11 11 9 9 10 10 10 8 7 6 5 4 5 6 7 7 7 8 9 9 9 9 10 10 10 11 11
12 11 11 11 11 12 13 14 13 13 13 13 12 11 11 10 10 10 10 10 10 10 10 10 10 10 10 10 10 10 10 10 10 10 10 11 11 11 10 10 10 10 10 9 8 7 6 5 6 6 5 4 5 6 6 7 8 8 8 9 10 10 9
12 11 10 11 11 12 13 14 14 14 14 13 13 12 12 11 11 10 10 10 10 10 10 10 10 10 10 10 10 10 10 10 10 10 10 10 10 10 10 10 10 10 10 9 8 8 7 5 5 5 2 2 4 4 4 4 6 7 7 7 8 8 8
13 11 10 11 12 13 13 14 14 14 14 14 14 13 12 11 10 10 10 9 9 9 9 10 10 10 9 10 9 10 10 9 10 10 9 9 9 9 10 10 10 10 10 10 9 8 7 5 5 3 3 3 3 1 4 3 4 5 5 6 7 7 6
13 11 11 11 12 13 14 14 15 15 14 14 14 13 12 11 10 9 9 9 8 8 8 8 9 9 8 8 8 8 8 8 8 8 8 9 9 9 9 9 9 9 9 9 9 9 7 6 5 4 4 4 5 4 3 5 4 4 4 4 6 6 6
13 12 12 12 12 14 14 15 16 15 15 15 14 14 13 12 11 9 8 8 8 7 7 7 7 7 7 7 7 7 6 6 7 7 7 7 7 7 8 8 8 8 8 8 8 8 7 6 5 4 5 4 5 6 4 5 4 3 3 3 4 4 4
12 13 13 12 13 14 15 16 16 16 16 15 14 14 13 12 11 10 9 9 8 7 7 7 7 6 6 6 6 6 5 5 6 6 5 5 5 5 5 6 6 6 6 6 7 7 6 6 6 5 5 5 5 4 4 5 6 5 4 3 3 3 3
13 13 14 14 14 14 15 16 17 17 16 15 15 15 14 13 12 11 10 10 9 8 7 7 6 6 6 5 5 6 5 4 5 5 4 4 4 3 3 4 4 4 4 4 3 3 4 4 4 4 4 4 5 3 4 6 6 6 4 2 2 3 3
13 14 15 15 15 15 15 16 17 17 16 16 15 14 14 13 13 12 11 11 10 9 8 8 7 6 6 6 5 5 4 4 4 4 4 3 3 3 2 2 3 3 3 3 3 3 3 1 1 3 3 3 4 3 3 4 4 5 4 2 2 2 3
14 15 16 16 15 15 15 15 16 17 17 16 15 14 14 13 13 12 12 11 11 10 9 8 7 6 6 6 6 5 5 4 4 4 4 3 4 4 3 2 2 1 2 2 3 4 3 3 3 2 3 3 3 3 3 2 1 1 3 3 2 3 4
14 15 15 15 15 15 16 15 16 17 16 16 16 14 14 14 13 13 12 12 11 10 9 9 7 7 7 7 6 6 5 5 5 5 5 4 4 5 4 3 3 2 1 1 1 2 1 2 3 2 1 1 2 2 2 2 2 2 1 1 1 2 2
13 14 14 14 14 16 16 15 15 15 16 16 16 14 14 14 13 12 12 12 11 10 9 9 8 7 7 7 7 6 6 6 6 7 6 6 5 5 6 5 5 4 3 2 2 1 0 0 1 2 1 2 1 1 1 3 3 2 3 2 2 1 3
14 15 15 15 15 16 16 16 15 14 14 15 15 14 14 14 13 13 12 11 11 11 10 9 8 8 8 8 8 8 8 8 9 9 8 8 8 7 7 7 6 6 6 5 5 4 1 1 1 3 3 4 4 1 1 3 4 3 4 3 3 3 2
15 17 17 17 17 17 16 15 15 14 13 14 14 14 14 14 13 12 12 12 11 10 9 9 8 8 8 8 9 10 10 11 11 11 10 9 8 8 8 8 7 7 7 7 7 6 4 4 4 3 3 6 7 3 2 4 5 4 5 5 5 5 4
16 16 17 16 16 17 16 15 15 14 14 13 14 14 14 14 14 13 13 13 12 10 10 9 8 7 7 8 9 11 12 13 12 12 11 9 8 7 7 7 7 7 8 8 8 8 7 6 6 5 5 5 5 4 3 5 6 5 7 8 7 7 7
16 15 14 14 14 14 15 15 14 14 14 14 13 14 13 11 12 15 16 13 11 9 8 6 6 7 9 9 9 11 12 12 12 11 9 8 7 6 6 6 6 7 8 8 8 8 8 8 8 7 6 6 5 3 3 5 7 6 7 10 9 8 7
14 13 11 11 12 12 12 11 11 11 12 12 11 13 14 9 6 9 12 11 10 8 5 5 8 11 12 10 9 10 11 9 8 7 5 4 4 4 4 4 5 8 9 9 10 11 10 11 11 10 8 8 7 5 4 4 5 4 5 8 9 7 7
10 11 10 9 10 10 10 9 10 9 9 8 8 9 12 10 6 8 8 6 8 7 5 7 9 9 8 7 7 5 5 4 2 1 1 1 1 2 2 2 3 5 6 7 8 10 11 13 14 14 13 12 10 8 6 5 5 5 7 9 8 6 8
9 9 8 7 7 7 7 8 9 8 6 7 7 7 7 8 10 10 9 5 6 6 7 7 6 6 5 5 6 3 1 1 2 3 3 3 2 1 0 1 2 3 4 5 5 4 8 11 14 16 16 15 13 12 10 8 6 5 5 5 6 6 7
10 10 8 7 6 6 6 8 10 9 7 6 6 6 6 7 8 9 7 3 6 6 7 7 7 7 7 6 6 4 2 2 2 4 4 3 3 2 1 1 2 3 4 5 5 3 4 8 11 14 15 14 14 13 11 11 10 8 4 1 3 5 6
9 9 9 10 9 9 9 9 10 10 8 8 7 6 6 5 4 5 6 6 8 7 7 7 8 8 7 7 6 4 2 2 2 4 3 3 3 3 2 2 1 3 2 2 4 5 2 4 5 8 8 8 9 10 9 8 10 10 8 4 3 4 4
8 8 9 10 10 10 9 9 9 9 8 9 10 8 8 8 6 7 9 10 10 8 7 7 7 7 7 6 6 4 2 1 2 3 4 3 3 3 3 3 1 2 3 2 5 6 4 1 2 5 6 6 5 5 6 7 7 7 7 5 3 3 4
10 10 9 9 9 9 9 10 10 10 10 11 11 10 9 9 8 8 8 9 10 9 8 7 6 6 6 6 6 4 2 2 3 3 4 4 4 4 3 3 2 2 3 2 6 6 7 6 5 5 6 6 5 5 7 8 7 7 7 6 6 6 8
9 9 9 9 10 9 10 11 11 11 12 11 11 10 9 8 8 8 8 8 9 8 7 6 5 5 6 6 5 3 2 3 4 4 4 5 6 4 3 3 4 4 3 3 4 7 11 8 4 5 6 5 4 4 5 7 6 6 7 7 8 9 10
7 7 7 9 10 10 10 10 10 10 10 10 9 9 8 8 7 7 7 7 8 7 6 6 5 5 5 5 6 4 3 3 5 4 4 5 6 5 5 7 7 6 5 6 7 10 11 6 2 4 6 5 5 5 4 4 5 6 7 9 9 10 11
5 4 5 7 8 9 9 9 8 8 8 9 9 8 8 8 8 7 6 6 7 7 6 6 6 6 6 6 7 5 4 3 6 4 3 5 6 5 5 6 6 6 6 8 9 9 8 3 2 3 6 5 7 8 5 2 4 6 7 9 10 11 12
5 4 4 6 6 6 7 7 7 7 7 8 9 8 8 8 7 7 6 7 8 7 6 6 7 7 7 7 8 6 5 2 6 5 4 5 6 7 8 6 5 5 5 6 7 7 6 4 1 1 3 4 4 3 2 2 6 10 9 10 10 10 10
3 3 4 5 6 6 6 6 7 7 7 7 7 7 7 6 7 7 7 7 8 7 7 8 7 8 8 7 8 8 4 2 5 6 4 5 6 7 13 11 7 6 5 5 7 7 7 7 4 3 4 4 4 3 4 5 8 11 10 9 10 10 9
3 4 5 5 7 8 8 8 8 8 8 8 8 8 8 7 7 8 8 8 8 9 10 10 9 10 10 8 9 10 5 2 3 3 3 5 6 5 14 12 7 5 6 7 7 7 6 6 6 5 5 5 6 7 7 7 7 9 9 9 9 9 9
7 7 8 8 9 9 10 10 10 11 11 10 10 10 10 9 9 10 9 9 9 10 12 12 11 12 12 10 10 11 9 6 5 3 3 6 2 8 13 9 4 3 6 7 6 6 4 4 5 5 5 5 6 6 6 5 7 8 8 8 8 9 9
10 10 10 10 11 11 12 11 11 11 11 11 11 11 10 10 10 10 10 11 11 11 12 13 13 13 12 11 10 11 12 10 9 7 5 5 0 10 11 5 1 2 6 7 6 5 4 4 4 5 5 6 5 4 3 4 6 6 7 8 8 8 7
Wind_Direction
143 135 130 130 126 124 125 120 113 107 101 96 91 88 90 90 83 76 70 64 70 86 90 74 58 53 51 45 43 41 38 36 33 31 38 52 55 30 61 70 28 47 132 149 190 182 135 122 114 98 89 82 69 61 63 63 65 68 65 64 66 72 74
141 139 139 135 129 128 126 120 115 107 100 96 92 93 94 90 83 76 75 75 70 73 86 86 72 59 55 49 45 43 42 42 39 37 40 43 44 35 39 52 37 16 98 118 181 248 112 124 140 123 112 98 74 63 67 72 73 74 73 74 73 74 76
150 150 144 137 133 131 126 121 119 114 109 102 94 93 91 88 84 82 86 85 75 73 80 83 76 65 59 56 54 51 48 48 46 45 46 43 41 36 29 33 34 25 61 94 128 172 100 99 126 131 131 118 91 71 71 79 81 81 80 79 77 77 78
161 155 146 142 139 135 133 130 125 120 114 108 101 95 90 88 85 84 87 86 80 78 79 78 75 70 65 62 60 58 54 53 50 49 49 46 42 42 34 25 28 29 28 45 83 131 145 149 136 124 119 120 114 103 98 95 89 87 86 82 78 78 77
167 158 153 149 143 141 140 135 130 125 120 116 110 101 96 94 91 90 89 87 83 80 78 76 74 73 70 66 61 58 56 52 50 50 50 46 41 44 41 31 33 38 32 28 41 76 111 111 114 119 115 118 113 106 114 109 91 82 79 78 78 78 79
167 162 157 150 147 146 144 139 136 134 129 124 118 111 108 104 99 97 94 91 88 83 81 79 76 75 75 72 67 63 61 58 54 54 54 50 44 43 42 38 37 41 43 39 44 61 70 84 107 115 109 116 121 120 124 113 95 84 75 74 76 76 77
165 163 158 154 152 149 146 145 142 137 133 129 125 120 115 110 105 101 98 96 94 89 86 81 76 74 75 77 72 67 66 64 62 61 59 57 52 47 45 44 43 41 41 39 39 63 85 96 103 101 101 121 132 126 120 104 91 87 80 74 74 76 76
162 162 159 158 155 152 151 148 143 139 137 133 129 124 119 116 111 108 105 101 100 97 93 89 84 77 74 76 73 70 70 67 66 67 64 61 56 53 50 49 52 45 39 38 30 39 62 74 83 93 104 125 116 97 93 91 87 85 86 81 74 75 78
163 160 160 161 157 156 154 149 144 141 138 135 132 129 126 124 119 115 111 107 105 102 98 95 92 86 81 79 76 72 72 69 67 67 65 62 57 56 54 53 59 53 43 42 41 43 50 62 86 96 101 115 107 106 101 88 86 84 83 86 82 76 77
160 155 159 162 159 157 154 150 145 141 139 138 137 135 134 131 126 121 115 111 109 105 103 102 98 94 88 84 81 78 76 74 72 68 64 62 58 55 55 55 59 57 50 47 50 54 48 50 79 74 23 34 45 131 143 115 94 83 63 63 78 87 84
156 154 160 163 162 160 157 153 147 144 144 143 142 142 141 138 132 129 124 118 115 110 109 107 104 102 98 92 89 85 82 79 78 75 70 67 62 58 56 57 59 56 52 51 53 58 54 52 67 56 43 42 3 354 96 115 99 85 75 59 60 74 82
154 156 160 166 169 166 161 158 152 149 149 149 149 148 147 146 143 139 135 130 125 121 119 116 114 111 108 106 103 98 95 89 87 85 80 75 71 67 62 57 58 54 49 52 54 55 54 53 60 63 62 64 29 21 62 115 119 92 86 85 68 61 67
157 159 163 173 176 171 167 162 157 154 153 154 154 153 154 154 152 150 147 145 142 138 136 131 129 125 121 121 116 113 112 107 102 96 88 85 79 76 73 62 58 51 41 50 56 54 54 47 48 62 67 75 69 44 49 88 108 101 78 79 91 75 63
165 167 171 180 182 175 171 166 161 159 157 158 159 159 161 160 160 159 156 156 155 153 152 147 143 141 138 132 125 124 128 124 113 104 99 99 91 78 73 71 70 55 38 45 47 53 70 62 57 72 77 87 90 69 63 87 107 109 92 84 94 76 54
171 175 179 185 183 176 172 169 167 163 160 162 165 166 167 166 165 164 162 162 162 161 162 159 157 157 149 145 142 141 147 141 125 119 121 123 117 107 94 80 78 55 33 29 353 11 60 37 18 96 88 85 91 74 72 106 117 113 120 132 152 139 97
177 182 186 186 181 177 174 172 170 167 163 164 169 173 172 170 170 168 166 167 166 168 168 165 168 170 164 164 164 161 167 163 154 154 157 162 152 138 139 135 116 89 45 36 348 2 32 336 334 63 83 71 81 66 46 53 68 113 158 152 217 208 136
181 184 187 184 181 178 176 176 174 170 167 167 172 177 176 175 175 173 173 174 173 175 174 171 178 182 179 183 185 181 187 189 186 188 187 184 175 160 166 181 171 164 150 110 335 351 32 328 341 21 109 99 93 72 30 351 332 321 247 198 268 300 48
180 181 183 182 181 179 177 178 178 174 170 170 173 176 177 179 181 181 182 183 179 178 180 181 186 193 193 196 202 202 204 209 209 208 208 205 202 190 187 199 198 187 190 190 210 250 286 280 317 307 235 202 178 159 328 312 312 315 296 267 237 301 343
178 178 181 182 182 182 181 179 178 177 174 172 174 177 180 182 188 189 190 193 189 183 186 193 197 204 206 206 213 216 217 221 222 221 220 217 215 213 207 211 211 204 207 208 210 227 238 197 256 302 302 294 294 232 199 290 305 303 304 312 304 297 269
180 178 180 182 183 186 184 179 179 180 178 177 177 181 184 189 196 198 195 197 199 192 191 199 205 210 215 218 223 227 229 229 226 221 218 214 213 216 216 218 221 218 217 216 213 217 218 208 224 278 308 302 306 304 236 269 286 283 288 295 296 303 292
191 185 181 181 186 190 185 180 182 182 180 183 186 189 194 197 199 204 205 203 202 198 194 201 208 213 225 233 235 235 234 232 231 224 214 206 206 210 213 219 226 224 223 225 218 208 206 207 214 234 250 254 274 294 288 282 290 300 304 299 290 294 297
194 184 180 180 184 188 182 179 182 182 182 189 193 197 203 206 206 210 210 205 199 195 192 200 213 219 229 239 247 252 249 242 239 236 221 205 196 199 207 214 222 225 222 222 216 207 210 215 215 225 235 221 218 241 270 284 299 320 321 309 303 301 294
179 169 171 174 180 185 179 172 172 171 177 183 188 199 205 209 228 232 218 194 177 175 180 207 219 223 233 240 247 266 272 261 248 243 230 202 180 186 203 207 215 229 232 230 229 229 229 224 219 223 223 210 207 220 240 262 273 280 293 297 301 308 303
155 155 163 165 169 176 173 168 163 156 159 162 171 196 204 203 224 262 260 206 163 158 184 210 215 218 230 231 222 246 284 291 287 303 358 24 130 182 203 207 212 230 239 239 241 245 240 231 227 229 230 226 223 224 226 232 233 238 261 278 288 305 306
135 140 150 145 137 144 151 159 163 157 145 142 152 173 193 205 215 236 257 232 148 153 193 200 184 174 179 182 174 165 34 352 5 31 40 20 9 24 184 201 192 193 203 209 219 249 254 242 233 230 233 237 234 227 224 225 226 239 265 278 290 306 304
129 133 147 151 145 149 150 153 160 161 151 147 159 171 187 207 211 214 228 190 123 145 186 182 161 158 159 154 146 126 60 22 49 53 44 26 17 13 359 273 182 165 181 201 196 205 262 264 246 235 234 237 235 231 232 233 231 235 243 263 297 297 294
131 136 149 157 161 165 165 163 167 169 166 164 170 177 184 188 179 175 174 143 128 144 164 161 159 164 163 156 144 119 61 36 78 76 65 47 31 24 6 341 220 161 166 202 176 168 215 285 255 228 219 217 224 229 234 233 228 228 233 245 276 294 296
135 136 139 142 144 149 153 155 158 158 157 160 161 163 164 156 143 147 151 140 136 141 140 142 155 163 163 166 162 141 104 99 115 90 78 69 50 44 37 7 345 142 126 150 168 161 154 138 161 172 168 167 180 193 192 192 200 213 223 229 235 259 273
133 133 132 132 132 135 140 142 143 142 142 144 146 145 145 142 135 132 132 128 127 130 130 135 147 157 162 172 173 164 171 181 144 102 93 86 65 58 53 42 59 94 93 181 208 184 153 144 148 155 159 160 158 167 186 197 209 223 233 236 240 255 269
127 134 139 140 136 134 136 138 138 138 138 140 143 143 142 143 142 136 130 127 122 120 129 140 149 160 169 175 176 189 220 183 141 112 107 85 64 80 114 99 93 94 101 162 195 169 157 159 168 167 170 180 184 191 211 227 242 250 256 265 272 277 282
122 131 138 138 139 142 143 142 141 141 145 148 150 154 154 152 150 144 138 134 128 126 138 156 165 176 184 185 182 204 237 172 141 128 125 99 70 85 124 122 110 103 113 131 138 151 164 181 233 187 179 193 218 224 218 241 278 289 293 301 302 300 301
124 133 140 136 143 153 151 148 150 153 159 160 160 167 169 162 157 151 142 143 144 141 148 167 177 180 191 197 188 209 261 182 148 159 169 136 108 98 115 128 128 119 117 127 134 152 174 210 302 200 196 221 240 236 208 194 269 284 299 307 304 304 307
135 160 167 156 167 177 169 166 166 165 171 176 178 184 184 176 171 163 154 157 159 152 154 175 187 183 188 198 194 211 265 223 173 203 212 160 148 144 142 143 145 138 133 143 152 164 189 228 308 166 223 260 267 234 178 204 263 271 284 290 283 282 287
164 194 196 186 201 208 199 194 186 182 193 200 198 198 198 193 188 183 178 174 167 160 163 175 187 187 188 199 201 208 251 267 218 231 218 205 220 176 149 149 162 167 170 185 191 193 209 226 223 205 239 276 302 289 282 288 280 277 280 278 270 269 272
242 241 244 236 231 227 223 221 216 214 222 225 217 209 205 206 207 204 201 191 175 171 178 184 188 188 190 198 201 205 219 222 214 227 219 238 254 144 135 145 158 181 202 211 212 218 225 227 231 242 257 275 288 286 289 292 282 276 276 276 279 282 282
263 253 253 251 245 239 234 232 228 226 226 225 219 211 207 210 214 211 206 199 184 173 177 186 188 186 189 194 195 201 209 209 202 205 246 270 267 128 143 157 150 179 221 222 216 225 235 245 261 274 281 287 294 298 298 284 268 269 278 283 287 287 285
261 254 249 246 244 242 238 234 231 225 220 216 213 207 203 207 212 210 205 201 196 185 178 183 188 187 187 189 193 199 205 213 218 213 232 283 121 132 145 161 140 225 228 218 216 233 249 268 284 296 301 302 309 317 301 271 263 270 279 281 281 284 289